Date String (YYYY-MM-DD hh:mm:ss) UTC,Instrument flags,Ambient pressure (hPa),Sample flow (lpm),Bypass flow (lpm),Sample temperature (°C),Ambient temperature (°C),ASC tube jacket temperature (°C),LED temperature (°C),Box temperature (°C),Sample RH (%),Span deviation,Mass concentration (μg/m³),Mass concentration (μg/m³),Mass concentration (μg/m³)
DateTimeUTC,F1_M11,P_M11,Q1_M11,Q2_M11,T1_M11,T2_M11,T3_M11,T4_M11,T5_M11,U1_M11,ZSPAN_M11,X0_M11,X2_M11,X1_M11
2023-05-20 04:00:00,,0839.2,5.00,0.00,28.1,26.6,00.0,36.4,29.8,28.0,0002.0,0138.21,0099.92,0093.78
2023-05-20 04:01:00,,0839.1,5.00,0.00,28.1,26.6,00.0,36.4,29.8,28.0,0002.1,0138.89,0100.40,0094.20
2023-05-20 04:02:00,,0839.1,5.00,0.00,28.1,26.6,00.0,36.5,29.8,28.0,0002.2,0139.50,0100.77,0094.58
2023-05-20 04:03:00,,0839.1,5.01,0.00,28.1,26.6,00.0,36.5,29.8,28.0,0002.3,0140.05,0101.20,0094.96
2023-05-20 04:04:00,,0839.2,5.01,0.00,28.1,26.6,00.0,36.5,29.8,27.9,0002.4,0140.43,0101.49,0095.15
2023-05-20 04:05:00,,0839.2,5.00,0.00,28.1,26.6,00.0,36.5,29.8,27.9,0002.4,0141.21,0101.92,0095.48
2023-05-20 04:06:00,,0839.2,4.99,0.00,28.1,26.6,00.0,36.5,29.8,27.9,0002.5,0141.38,0102.11,0095.71
2023-05-20 04:07:00,,0839.2,5.00,0.00,28.2,26.6,00.0,36.5,29.8,27.9,0002.5,0141.78,0102.36,0095.96
2023-05-20 04:08:00,,0839.2,5.01,0.00,28.2,26.6,00.0,36.5,29.8,27.9,0002.5,0142.47,0102.63,0096.20
2023-05-20 04:09:00,,0839.1,5.01,0.00,28.2,26.6,00.0,36.5,29.8,27.9,0002.5,0142.78,0102.73,0096.29
2023-05-20 04:10:00,,0839.2,5.00,0.00,28.2,26.6,00.0,36.5,29.8,27.9,0002.6,0142.58,0102.61,0096.22
2023-05-20 04:11:00,,0839.2,5.00,0.00,28.2,26.6,00.0,36.5,29.8,27.8,0002.6,0142.39,0102.69,0096.38
2023-05-20 04:12:00,,0839.2,5.00,0.00,28.2,26.6,00.0,36.5,29.8,27.9,0002.6,0142.42,0102.58,0096.39
2023-05-20 04:13:00,,0839.1,5.00,0.00,28.2,26.6,00.0,36.5,29.8,27.8,0002.6,0142.88,0102.65,0096.51
2023-05-20 04:14:00,,0839.2,5.00,0.00,28.2,26.6,00.0,36.5,29.8,27.8,0002.5,0142.91,0102.75,0096.64
2023-05-20 04:15:00,,0839.1,5.00,0.00,28.2,26.6,00.0,36.5,29.8,27.9,0002.4,0142.93,0102.69,0096.64
2023-05-20 04:16:00,,0839.2,5.00,0.00,28.2,26.6,00.0,36.5,29.8,27.9,0002.4,0142.95,0102.47,0096.43
2023-05-20 04:17:00,,0839.2,4.99,0.00,28.2,26.6,00.0,36.5,29.8,27.9,0002.3,0142.80,0102.25,0096.24
2023-05-20 04:18:00,,0839.1,5.00,0.00,28.2,26.6,00.0,36.5,29.8,27.9,0002.3,0142.86,0102.22,0096.18
2023-05-20 04:19:00,,0839.1,4.99,0.00,28.2,26.6,00.0,36.5,29.8,28.3,0002.3,0142.34,0101.78,0095.81
2023-05-20 04:20:00,,0839.1,5.00,0.00,28.2,26.6,00.0,36.5,29.8,28.3,0002.3,0141.38,0101.29,0095.42
2023-05-20 04:21:00,,0839.2,5.00,0.00,28.2,26.6,00.0,36.5,29.8,28.1,0002.2,0140.63,0101.13,0095.19
2023-05-20 04:22:00,,0839.1,5.01,0.00,28.2,26.6,00.0,36.5,29.8,28.1,0002.2,0139.86,0100.89,0094.96
2023-05-20 04:23:00,,0839.1,5.00,0.00,28.2,26.7,00.0,36.5,29.8,28.0,0002.2,0139.51,0100.80,0094.81
2023-05-20 04:24:00,,0839.1,5.00,0.00,28.2,26.7,00.0,36.5,29.8,27.9,0002.2,0139.18,0100.79,0094.69
2023-05-20 04:25:00,,0839.1,5.00,0.00,28.2,26.7,00.0,36.5,29.8,27.8,0002.3,0138.96,0100.57,0094.55
2023-05-20 04:26:00,,0839.1,5.00,0.00,28.2,26.7,00.0,36.5,29.8,27.8,0002.3,0138.86,0100.54,0094.58
2023-05-20 04:27:00,,0839.1,5.00,0.00,28.2,26.7,00.0,36.5,29.8,27.9,0002.2,0138.75,0100.59,0094.64
2023-05-20 04:28:00,,0839.1,5.00,0.00,28.2,26.7,00.0,36.5,29.8,28.0,0002.2,0138.38,0100.50,0094.54
2023-05-20 04:29:00,,0839.0,5.00,0.00,28.2,26.7,00.0,36.5,29.8,27.8,0002.2,0138.01,0100.47,0094.50
2023-05-20 04:30:00,,0838.9,5.00,0.00,28.2,26.7,00.0,36.5,29.8,27.8,0002.2,0138.13,0100.71,0094.67
2023-05-20 04:31:00,,0838.9,5.00,0.00,28.2,26.6,00.0,36.5,29.8,27.8,0002.3,0138.49,0101.02,0094.94
2023-05-20 04:32:00,,0838.8,5.00,0.00,28.2,26.6,00.0,36.5,29.8,27.8,0002.4,0139.04,0101.14,0095.07
2023-05-20 04:33:00,,0838.8,5.00,0.00,28.2,26.6,00.0,36.5,29.8,27.9,0002.4,0138.84,0100.92,0094.91
2023-05-20 04:34:00,,0838.9,5.00,0.00,28.2,26.7,00.0,36.5,29.8,27.8,0002.3,0139.36,0100.97,0094.94
2023-05-20 04:35:00,,0839.0,5.01,0.00,28.2,26.7,00.0,36.5,29.8,27.7,0002.3,0139.73,0101.02,0094.98
2023-05-20 04:36:00,,0838.8,5.00,0.00,28.2,26.7,00.0,36.5,29.9,27.7,0002.2,0139.91,0101.15,0094.99
2023-05-20 04:37:00,,0838.8,5.00,0.00,28.2,26.7,00.0,36.6,29.9,27.6,0002.3,0140.46,0101.25,0095.01
2023-05-20 04:38:00,,0838.9,5.00,0.00,28.2,26.7,00.0,36.6,29.9,27.6,0002.4,0140.47,0101.34,0095.13
2023-05-20 04:39:00,,0838.9,5.00,0.00,28.2,26.7,00.0,36.6,29.9,27.7,0002.4,0140.64,0101.47,0095.30
2023-05-20 04:40:00,,0838.9,5.00,0.00,28.2,26.7,00.0,36.6,29.9,27.6,0002.4,0140.55,0101.43,0095.27
2023-05-20 04:41:00,,0838.9,5.00,0.00,28.2,26.7,00.0,36.6,29.9,27.6,0002.4,0140.32,0101.42,0095.29
2023-05-20 04:42:00,,0838.9,4.99,0.00,28.2,26.7,00.0,36.6,29.9,27.6,0002.3,0140.49,0101.51,0095.36
2023-05-20 04:43:00,,0838.8,5.00,0.00,28.2,26.7,00.0,36.6,29.9,27.6,0002.3,0140.40,0101.53,0095.40
2023-05-20 04:44:00,,0838.8,5.00,0.00,28.2,26.7,00.0,36.6,29.9,27.5,0002.3,0140.93,0101.86,0095.70
2023-05-20 04:45:00,,0838.8,5.00,0.00,28.2,26.7,00.0,36.6,29.9,27.5,0002.3,0140.64,0101.97,0095.89
2023-05-20 04:46:00,,0838.8,5.00,0.00,28.2,26.6,00.0,36.6,29.9,27.5,0002.3,0140.07,0101.96,0096.01
2023-05-20 04:47:00,,0838.8,5.00,0.00,28.2,26.7,00.0,36.6,29.8,27.5,0002.4,0140.11,0101.80,0096.06
2023-05-20 04:48:00,,0838.8,4.99,0.00,28.2,26.7,00.0,36.6,29.8,27.5,0002.4,0139.68,0101.70,0096.02
2023-05-20 04:49:00,,0838.8,5.00,0.00,28.2,26.7,00.0,36.6,29.8,27.5,0002.4,0139.99,0101.78,0096.06
2023-05-20 04:50:00,,0838.8,5.00,0.00,28.2,26.7,00.0,36.6,29.9,27.5,0002.4,0140.17,0101.84,0096.10
2023-05-20 04:51:00,,0838.8,5.00,0.00,28.2,26.7,00.0,36.6,29.9,27.5,0002.4,0140.55,0102.12,0096.31
2023-05-20 04:52:00,,0838.8,5.00,0.00,28.2,26.7,00.0,36.6,29.9,27.5,0002.5,0140.89,0102.32,0096.47
2023-05-20 04:53:00,,0838.8,5.01,0.00,28.2,26.7,00.0,36.6,29.9,27.5,0002.5,0141.16,0102.53,0096.60
2023-05-20 04:54:00,,0838.8,5.01,0.00,28.2,26.7,00.0,36.6,29.9,27.5,0002.5,0140.86,0102.60,0096.74
2023-05-20 04:55:00,,0838.7,4.99,0.00,28.2,26.7,00.0,36.6,29.9,27.5,0002.6,0140.94,0102.52,0096.74
2023-05-20 04:56:00,,0838.7,4.99,0.00,28.2,26.7,00.0,36.6,29.9,27.5,0002.6,0141.71,0102.55,0096.74
2023-05-20 04:57:00,,0838.8,5.01,0.00,28.2,26.7,00.0,36.6,29.9,27.5,0002.6,0142.20,0102.60,0096.70
2023-05-20 04:58:00,,0838.8,4.99,0.00,28.2,26.7,00.0,36.6,29.9,27.5,0002.5,0142.21,0102.74,0096.73
2023-05-20 04:59:00,,0838.7,5.00,0.00,28.2,26.7,00.0,36.6,29.9,27.4,0002.6,0142.21,0102.95,0096.85
